{"data":{"norad_id":68201,"epoch":"2026-09-20T04:18:25.161696Z","epoch_age_seconds":103154,"freshness":"FRESH","line1":"1 68201U 26052D   26263.17945789  .00003081  00000+0  18150-3 0  9990","line2":"2 68201  97.5252 336.6577 0010676 350.1291   9.9728 15.12298778 28406","mean_motion":15.12298778,"eccentricity":0.0010676,"inclination_deg":97.5252,"raan_deg":336.6577,"arg_perigee_deg":350.1291,"mean_anomaly_deg":9.9728,"bstar":0.0001815,"rev_number":2840,"period_min":95.219279480235,"perigee_km":521.81717914176,"apogee_km":536.56570683323,"semimajor_km":6907.3284429875,"source":"CELESTRAK","updated_at":"2026-09-20T09:00:24.068274Z"}}